Regional Weather Roundup
Issued by NWS

Home | Current Version | Previous Version | Graphics & Text | Print | Product List | Glossary On
Versions: 1 2 3 4 5 6 7 8 9 10 11 12 13 14 15 16 17 18 19 20 21 22 23 24 25 26 27 28 29 30 31 32 33 34 35 36 37 38 39 40 41 42 43 44 45 46 47 48 49 50
000
ASUS45 KCYS 251410
RWRWY

WYOMING REGIONAL WEATHER ROUNDUP
NATIONAL WEATHER SERVICE CHEYENNE WY
800 AM MDT FRI MAY 25 2018

NOTE:  "FAIR" INDICATES FEW OR NO CLOUDS BELOW 12,000 FEET
WITH NO SIGNIFICANT WEATHER AND/OR OBSTRUCTIONS TO VISIBILITY.

WYZ001-251500-
YELLOWSTONE NATIONAL PARK

CITY           SKY/WX    TMP DP  RH WIND       PRES   REMARKS
LK YELLOWSTONE   N/A     38  37  97 CALM      30.26
W YELLOWSTONE  NOT AVBL

$$
WYZ002>013-054>058-071-098>099-251500-
NORTHERN WYOMING

CITY           SKY/WX    TMP DP  RH WIND       PRES   REMARKS
JACKSON        CLOUDY    44  42  93 CALM      30.22F
CODY           FAIR      63  47  55 S5        30.08S
GREYBULL       FAIR      59  51  75 E8        30.03S
WORLAND        FAIR      61  51  70 E3        30.05S
SHERIDAN       FAIR      65  52  62 N3        30.02R
BUFFALO        FAIR      66  47  50 S3        30.07S
GILLETTE       FAIR      67  50  54 W7        30.03S
NEWCASTLE      FAIR      63  46  55 CALM      30.03S

$$
WYZ014>020-022>026-101>103-251500-
CENTRAL WYOMING

CITY           SKY/WX    TMP DP  RH WIND       PRES   REMARKS
BIG PINEY      FAIR      49  42  77 N5        30.22F
PINEDALE       FAIR      45  41  87 NW7       30.24S
DUBOIS         FAIR      48  37  66 NW7       30.20S
LANDER         FAIR      56  42  59 CALM      30.11S
RIVERTON       FAIR      61  43  51 NW9       30.12S
CASPER         FAIR      60  47  61 SW10      30.11S
DOUGLAS        FAIR      59  51  75 NW6       30.09S

$$
WYZ021-027>030-104>119-251500-
SOUTHERN WYOMING

CITY           SKY/WX    TMP DP  RH WIND       PRES   REMARKS
EVANSTON       FAIR      53  42  66 N5        30.19R
FORT BRIDGER   FAIR      55  43  63 E6        30.22S
ROCK SPRINGS   FAIR      53  41  63 S8        30.19F
DIXON          FAIR      54  36  49 E9        30.22S
RAWLINS        FAIR      55  38  52 CALM      30.20S
SARATOGA       FAIR      55  34  44 SE12      30.23S
LARAMIE        FAIR      54  35  48 S5        30.23S
CHEYENNE       FAIR      63  44  50 W7        30.15S
TORRINGTON     FAIR      60  52  74 W6        30.03R
PINE BLUFFS    FAIR      61  48  63 CALM      30.10F

$$



USA.gov is the U.S. government's official web portal to all federal, state and local government web resources and services.